Location: Kielce
(50.8833°N, 20.6167°E)
Time: 07:40:50
(UTC+02:00)

deb Explorer IX - All Passes

Search period start: 14 April 2021 00:00
Search period end: 24 April 2021 00:00
Orbit: 539 x 1100 km, 38.8° (Epoch: 12 April)

Date Brightness Start Highest point End Pass type
(mag) Time Alt. Az. Time Alt. Az. Time Alt. Az.
14 Apr - 10:21:58 10° SSW 10:25:35 19° SSE 10:29:34 10° ESE daylight
14 Apr - 12:06:51 10° SW 12:11:29 26° S 12:16:41 10° SE daylight
14 Apr - 13:53:08 10° WSW 13:57:35 21° SSW 14:02:25 10° SSE daylight
15 Apr - 09:58:27 10° SSW 10:01:51 18° SSE 10:05:35 10° ESE daylight
15 Apr - 11:43:16 10° SW 11:47:43 25° S 11:52:42 10° SE daylight
15 Apr - 13:29:32 10° WSW 13:33:47 20° SSW 13:38:25 10° SSE daylight
16 Apr - 09:34:57 10° SSW 09:38:08 17° SSE 09:41:37 10° ESE daylight
16 Apr - 11:19:43 10° SW 11:23:58 24° S 11:28:45 10° SE daylight
16 Apr - 13:05:57 10° WSW 13:10:00 19° SSW 13:14:25 10° SSE daylight
17 Apr - 09:11:28 10° SSW 09:14:26 16° SSE 09:17:40 10° ESE daylight
17 Apr - 10:56:11 10° SW 11:00:14 23° S 11:04:47 10° SE daylight
17 Apr - 12:42:24 10° WSW 12:46:14 19° SSW 12:50:26 10° SSE daylight
18 Apr - 08:47:59 10° SSW 08:50:45 15° SSE 08:53:43 10° SE daylight
18 Apr - 10:32:39 10° SW 10:36:31 22° S 10:40:50 10° SE daylight
18 Apr - 12:18:52 10° WSW 12:22:28 18° SSW 12:26:26 10° SSE daylight
19 Apr - 08:24:31 10° SSW 08:27:04 15° SSE 08:29:47 10° SE daylight
19 Apr - 10:09:08 10° SW 10:12:48 21° S 10:16:54 10° SE daylight
19 Apr - 11:55:22 10° SW 11:58:45 17° SSW 12:02:26 10° SSE daylight
20 Apr - 08:01:04 10° SSW 08:03:24 14° SSE 08:05:53 10° SE daylight
20 Apr - 09:45:38 10° SW 09:49:08 20° S 09:52:59 10° SE daylight
20 Apr - 11:31:52 10° SW 11:35:01 16° SSW 11:38:26 10° SSE daylight
21 Apr - 07:37:36 10° S 07:39:45 13° SSE 07:42:00 10° SE daylight
21 Apr - 09:22:08 10° SW 09:25:27 20° S 09:29:06 10° SE daylight
21 Apr - 11:08:25 10° SW 11:11:19 15° SSW 11:14:27 10° SSE daylight
22 Apr - 07:14:09 10° S 07:16:06 13° SSE 07:18:08 10° SE daylight
22 Apr - 08:58:39 10° SW 09:01:47 19° S 09:05:13 10° SE daylight
22 Apr - 10:44:58 10° SW 10:47:38 15° SSW 10:50:29 10° SSE daylight
23 Apr - 06:50:41 10° S 06:52:28 12° SSE 06:54:18 10° SE daylight
23 Apr - 08:35:09 10° SW 08:38:09 18° S 08:41:22 10° SE daylight
23 Apr - 10:21:33 10° SW 10:23:57 14° SSW 10:26:31 10° SSE daylight
